Hallock, MN

1:22 PM CDT on April 23, 2017 (GMT -0500)
Hallock Municipal

Weather History for KHCO - January, 2013

Change the Weather History Date:

Saturday, January 12, 2013

  Actual Average Record
Temperature  
Mean Temperature -2 °F -  
Max Temperature 8 °F 9 °F 43 °F (1986)
Min Temperature -11 °F -8 °F -34 °F (1971)
Degree Days  
Heating Degree Days 66    
Moisture  
Dew Point -5 °F    
Average Humidity 83    
Maximum Humidity 92    
Minimum Humidity 77    
Precipitation  
Precipitation 0.00 in - - ()
Sea Level Pressure  
Sea Level Pressure 29.90 in    
Wind  
Wind Speed 0 mph (North)    
Max Wind Speed 0 mph    
Max Gust Speed -    
Visibility 4 miles    
Events Fog , Snow    
Averages and records for this station are not official NWS values.
T = Trace of Precipitation, MM = Missing Value Source: NWS Daily Summary

Daily Weather History Graph

Daily Weather History Graph

Search for Another Location

Airport or City:

Trip Planner

Search our weather history database for the weather conditions in past years. The results will help you decide how hot, cold, wet, or windy it might be!

Date:

Astronomy

Jan. 12, 2013 Rise Set
Actual Time 8:17 AM CST 4:55 PM CST
Civil Twilight 7:41 AM CST 5:31 PM CST
Nautical Twilight 7:01 AM CST 6:11 PM CST
Astronomical Twilight 6:23 AM CST 6:48 PM CST
Moon 8:28 AM CST (1/12) 6:36 PM CST (1/12)
Length of Visible Light 9h 50m
Length of Day
8h 38m
New Moon, 1% of the Moon is Illuminated
Jan 12
New Moon
Jan 18
First Quarter
Jan 26
Full
Feb 3
Last Quarter
Feb 10
New

Hourly Weather History & Observations

Time (CST) Temp. Dew Point Humidity Pressure Visibility Wind Dir Wind Speed Gust Speed Precip Events Conditions
12:14 AM 8.6 °F 6.8 °F 92% 29.56 in 1.2 mi Calm Calm - N/A Snow Light Snow
12:34 AM 8.6 °F 6.8 °F 92% 29.57 in 1.5 mi Calm Calm - N/A Snow Light Snow
12:54 AM 8.6 °F 6.8 °F 92% 29.57 in 1.8 mi Calm Calm - N/A Snow Light Snow
1:14 AM 8.6 °F 5.0 °F 85% 29.58 in 2.0 mi Calm Calm - N/A Snow Light Snow
1:34 AM 8.6 °F 5.0 °F 85% 29.59 in 2.0 mi Calm Calm - N/A Snow Light Snow
1:55 AM 8.6 °F 5.0 °F 85% 29.59 in 1.5 mi Calm Calm - N/A Snow Light Snow
2:14 AM 8.6 °F 5.0 °F 85% 29.60 in 1.8 mi Calm Calm - N/A Snow Light Snow
2:34 AM 8.6 °F 5.0 °F 85% 29.62 in 1.2 mi Calm Calm - N/A Snow Light Snow
2:55 AM 6.8 °F 5.0 °F 92% 29.62 in 1.5 mi Calm Calm - N/A Snow Light Snow
3:14 AM 6.8 °F 3.2 °F 85% 29.63 in 1.0 mi Calm Calm - N/A Snow Light Snow
3:34 AM 6.8 °F 3.2 °F 85% 29.64 in 1.0 mi Calm Calm - N/A Snow Light Snow
3:55 AM 6.8 °F 3.2 °F 85% 29.64 in 1.2 mi Calm Calm - N/A Snow Light Snow
4:14 AM 5.0 °F 1.4 °F 85% 29.64 in 1.0 mi Calm Calm - N/A Snow Light Snow
4:34 AM 5.0 °F 1.4 °F 85% 29.67 in 1.0 mi Calm Calm - N/A Snow Light Snow
4:55 AM 5.0 °F 1.4 °F 85% 29.67 in 1.0 mi Calm Calm - N/A Snow Light Snow
5:14 AM 3.2 °F -0.4 °F 85% 29.68 in 0.8 mi Calm Calm - N/A Snow Light Snow
5:34 AM 3.2 °F -0.4 °F 85% 29.70 in 0.8 mi Calm Calm - N/A Snow Light Snow
5:54 AM 3.2 °F -0.4 °F 85% 29.72 in 0.8 mi Calm Calm - N/A Snow Snow
6:14 AM 1.4 °F -2.2 °F 85% 29.73 in 0.8 mi Calm Calm - N/A Snow Snow
6:34 AM 1.4 °F -2.2 °F 85% 29.75 in 0.8 mi Calm Calm - N/A Snow Light Snow
6:54 AM 1.4 °F -2.2 °F 85% 29.76 in 0.5 mi Calm Calm - N/A Snow Snow
7:14 AM 1.4 °F -2.2 °F 85% 29.79 in 0.5 mi Calm Calm - N/A Snow Snow
7:34 AM 1.4 °F -2.2 °F 85% 29.80 in 0.8 mi Calm Calm - N/A Snow Light Snow
7:54 AM 1.4 °F -2.2 °F 85% 29.81 in 0.8 mi Calm Calm - N/A Snow Snow
8:14 AM 1.4 °F -2.2 °F 85% 29.82 in 0.5 mi Calm Calm - N/A Snow Light Snow
8:34 AM 1.4 °F -2.2 °F 85% 29.83 in 0.5 mi Calm Calm - N/A Snow Light Snow
8:54 AM -0.4 °F -4.0 °F 85% 29.84 in 0.5 mi Calm Calm - N/A Snow Light Snow
9:14 AM -0.4 °F -4.0 °F 85% 29.85 in 0.5 mi Calm Calm - N/A Snow Light Snow
9:34 AM -0.4 °F -4.0 °F 85% 29.87 in 0.5 mi Calm Calm - N/A Snow Light Snow
9:54 AM -2.2 °F -5.8 °F 85% 29.88 in 0.5 mi Calm Calm - N/A Fog Light Freezing Fog
10:14 AM -0.4 °F -5.8 °F 78% 29.89 in - Calm Calm - N/A   Unknown
10:34 AM - - N/A% 29.89 in - Calm Calm - N/A   Unknown
10:54 AM -0.4 °F -5.8 °F 78% 29.89 in - Calm Calm - N/A   Overcast
11:14 AM -0.4 °F -5.8 °F 78% 29.90 in - Calm Calm - N/A   Overcast
11:54 AM -2.2 °F -5.8 °F 85% 29.92 in - Calm Calm - N/A   Overcast
12:14 PM -2.2 °F -5.8 °F 85% 29.94 in - Calm Calm - N/A   Overcast
12:35 PM -2.2 °F -7.6 °F 78% 29.95 in - Calm Calm - N/A   Overcast
12:54 PM -2.2 °F -7.6 °F 78% 29.95 in - Calm Calm - N/A   Overcast
1:14 PM -2.2 °F -7.6 °F 78% 29.96 in - Calm Calm - N/A   Overcast
1:35 PM -2.2 °F -7.6 °F 78% 29.97 in - Calm Calm - N/A   Overcast
1:54 PM -4.0 °F -9.4 °F 78% 29.99 in - Calm Calm - N/A   Overcast
2:14 PM -4.0 °F -7.6 °F 85% 29.99 in - Calm Calm - N/A   Overcast
2:34 PM -4.0 °F -7.6 °F 85% 30.01 in - Calm Calm - N/A   Overcast
2:54 PM -4.0 °F -9.4 °F 78% 30.02 in - Calm Calm - N/A   Overcast
3:14 PM -4.0 °F -9.4 °F 78% 30.03 in - Calm Calm - N/A   Overcast
3:34 PM -4.0 °F -9.4 °F 78% 30.05 in - Calm Calm - N/A   Mostly Cloudy
3:55 PM -5.8 °F -9.4 °F 84% 30.06 in - Calm Calm - N/A   Mostly Cloudy
4:14 PM -5.8 °F -9.4 °F 84% 30.06 in - Calm Calm - N/A   Scattered Clouds
4:34 PM -5.8 °F -9.4 °F 84% 30.06 in - Calm Calm - N/A   Scattered Clouds
4:54 PM -5.8 °F -9.4 °F 84% 30.07 in - Calm Calm - N/A   Scattered Clouds
5:14 PM -5.8 °F -9.4 °F 84% 30.07 in - Calm Calm - N/A   Unknown
5:34 PM -5.8 °F -9.4 °F 84% 30.08 in - Calm Calm - N/A   Scattered Clouds
5:54 PM -5.8 °F -9.4 °F 84% 30.08 in - Calm Calm - N/A   Clear
6:14 PM -5.8 °F -9.4 °F 84% 30.09 in 10.0 mi Calm Calm - N/A   Clear
6:34 PM -5.8 °F -9.4 °F 84% 30.10 in 10.0 mi Calm Calm - N/A   Clear
7:14 PM -5.8 °F -9.4 °F 84% 30.11 in 10.0 mi Calm Calm - N/A   Clear
7:34 PM -5.8 °F -11.2 °F 77% 30.12 in 10.0 mi Calm Calm - N/A   Clear
7:54 PM -7.6 °F -11.2 °F 84% 30.12 in 10.0 mi Calm Calm - N/A   Clear
8:14 PM -7.6 °F -11.2 °F 84% 30.12 in 10.0 mi Calm Calm - N/A   Clear
8:34 PM -7.6 °F -13.0 °F 77% 30.12 in 10.0 mi Calm Calm - N/A   Clear
8:54 PM -7.6 °F -13.0 °F 77% 30.13 in 10.0 mi Calm Calm - N/A   Clear
9:14 PM -9.4 °F -14.8 °F 77% 30.13 in 10.0 mi Calm Calm - N/A   Clear
9:34 PM -9.4 °F -14.8 °F 77% 30.13 in 10.0 mi Calm Calm - N/A   Clear
9:54 PM -9.4 °F -14.8 °F 77% 30.13 in 10.0 mi Calm Calm - N/A   Clear
10:14 PM -9.4 °F -14.8 °F 77% 30.14 in 10.0 mi Calm Calm - N/A   Clear
10:34 PM -9.4 °F -14.8 °F 77% 30.14 in 10.0 mi Calm Calm - N/A   Clear
10:54 PM -9.4 °F -14.8 °F 77% 30.14 in 10.0 mi Calm Calm - N/A   Clear
11:14 PM -11.2 °F -14.8 °F 84% 30.15 in 10.0 mi Calm Calm - N/A   Clear
11:34 PM -9.4 °F -14.8 °F 77% 30.16 in 10.0 mi Calm Calm - N/A   Clear
11:54 PM -11.2 °F -14.8 °F 84% 30.16 in 10.0 mi Calm Calm - N/A   Clear